[[{"header":{"parameterUnit":"m.s-1","parameterCategory":1,"la1":30.2992,"la2":30.254,"lo1":-89.0895,"lo2":-89.0443,"dy":0.0025,"dx":0.0025,"nx":19,"ny":19,"refTime":"2026-05-22T03:00:00:Z","depth":0,"parameterNumber":2,"parameterNumberName":"U-component_of_WINDS"},"data":[0,0,0,-1.7804,-1.7801,-1.7652,-1.7652,-1.7509,-1.7508,0,0,0,0,0,0,0,0,0,0,0,-1.7874,-1.7874,-1.7804,-1.7801,-1.7652,-1.7651,-1.7509,-1.7508,0,0,0,0,0,0,0,0,0,0,0,-1.7874,-1.7874,-1.7874,-1.7801,-1.7653,-1.7651,-1.7509,-1.7605,0,0,0,0,0,0,0,0,0,0,-1.7742,-1.7832,-1.7874,-1.7874,-1.78,-1.7653,-1.7651,-1.7609,-1.7599,-1.7596,0,-1.7598,0,-1.7551,-1.7501,-1.7501,0,0,0,-1.7782,-1.7841,-1.7776,-1.7874,-1.7799,-1.7653,-1.7714,-1.7603,-1.7592,-1.7583,-1.7595,-1.7589,-1.7548,-1.7501,-1.75,-1.7539,-1.754,0,0,-1.779,-1.7863,-1.7784,-1.777,-1.7793,-1.7719,-1.771,-1.7596,-1.7615,-1.7595,-1.7585,-1.7546,-1.75,-1.7499,-1.7538,-1.7539,0,0,0,-1.7827,-1.787,-1.7806,-1.7777,-1.7747,-1.7715,-1.7704,-1.762,-1.7593,-1.7583,-1.7544,-1.7499,-1.7498,-1.7536,-1.7538,-1.7662,0,0,0,-1.7831,-1.789,-1.7811,-1.7854,-1.775,-1.7681,-1.7732,-1.7601,-1.7586,-1.7545,-1.7499,-1.7497,-1.7535,-1.7537,-1.7656,-1.771,0,0,0,-1.7875,-1.7895,-1.7882,-1.7858,-1.7796,-1.7681,-1.7647,-1.7596,-1.7563,-1.7501,-1.7497,-1.7534,-1.7537,-1.765,-1.77,-1.7742,0,0,0,-1.7944,-1.7996,-1.7886,-1.7928,-1.7798,-1.7757,-1.7647,-1.7613,-1.7574,-1.7499,-1.7535,-1.7538,-1.7648,-1.7695,-1.7736,-1.7791,-1.782,0,0,-1.805,-1.8011,-1.803,-1.7927,-1.7924,-1.7774,-1.7789,-1.7686,-1.7615,-1.7569,-1.7569,-1.7658,-1.77,-1.7741,-1.7953,-1.7976,0,0,0,-1.8088,-1.8104,-1.8087,-1.8051,-1.7972,-1.7909,-1.7794,-1.7756,-1.7712,-1.7605,-1.768,-1.7703,-1.7724,-1.7747,-1.7767,-1.7782,-1.7551,-1.7551,-1.755,-1.8345,-1.8248,-1.8274,-1.8159,-1.8127,-1.8007,-1.7972,-1.79,-1.7814,-1.7833,-1.782,-1.796,-1.799,-1.8005,-1.8021,-1.7839,-1.7839,-1.784,-1.784,-1.8493,-1.85,-1.8381,-1.8363,-1.8261,-1.8246,-1.8133,-1.8072,-1.8044,-1.7963,-1.7976,-1.7899,-1.8033,-1.8043,-1.7848,-1.7847,-1.7846,-1.7845,-1.7845,-1.8653,-1.864,-1.8589,-1.8527,-1.8491,-1.8372,-1.835,-1.8258,-1.8171,-1.8185,-1.8162,-1.8159,-1.8148,-1.8179,-1.818,-1.818,-1.8181,-1.8181,-1.8181,-1.8841,-1.8779,-1.8771,-1.8689,-1.8653,-1.8595,-1.8474,-1.8437,-1.8374,-1.8308,-1.8308,-1.8222,-1.8063,-1.8027,-1.8189,-1.8187,-1.8186,-1.8186,-1.8185,-1.9033,-1.8973,-1.8962,-1.8926,-1.8821,-1.8792,-1.8671,-1.8605,-1.8561,-1.8553,-1.8462,-1.8359,-1.8314,-1.8297,-1.8267,-1.8481,-1.8481,-1.8481,-1.8481,-1.9171,-1.9136,-1.9102,-1.9051,-1.899,-1.888,-1.8872,-1.8777,-1.8672,-1.8639,-1.8593,-1.8544,-1.8531,-1.8494,-1.8473,-1.8443,-1.8697,-1.8698,-1.8698,-1.9284,-1.9239,-1.925,-1.9142,-1.9052,-1.8978,-1.8967,-1.8916,-1.8783,-1.8705,-1.8612,-1.8603,-1.8521,-1.85,-1.8425,-1.8394,-1.8338,0,0]},{"header":{"parameterUnit":"m.s-1","parameterCategory":1,"la1":30.2992,"la2":30.254,"lo1":-89.0895,"lo2":-89.0443,"dy":0.0025,"dx":0.0025,"nx":19,"ny":19,"refTime":"2026-05-22T03:00:00:Z","depth":0,"parameterNumber":3,"parameterNumberName":"V-component_of_WINDS"},"data":[0,0,0,2.6953,2.6956,2.7128,2.7128,2.7307,2.7309,0,0,0,0,0,0,0,0,0,0,0,2.688,2.688,2.6953,2.6957,2.7127,2.7129,2.7307,2.7309,0,0,0,0,0,0,0,0,0,0,0,2.688,2.688,2.6881,2.6957,2.7127,2.7129,2.7307,2.7192,0,0,0,0,0,0,0,0,0,0,2.7032,2.6943,2.688,2.6881,2.6958,2.7127,2.7129,2.7187,2.7199,2.7213,0,2.7221,0,2.7268,2.7318,2.7319,0,0,0,2.6973,2.6932,2.6999,2.6881,2.6959,2.7127,2.7055,2.7194,2.7208,2.7229,2.7224,2.7232,2.7271,2.7319,2.732,2.7351,2.7351,0,0,2.6964,2.6898,2.699,2.7007,2.698,2.705,2.706,2.7203,2.7193,2.7225,2.7237,2.7274,2.732,2.7321,2.7352,2.7351,0,0,0,2.6926,2.689,2.6955,2.6998,2.7032,2.7054,2.7066,2.7186,2.7213,2.7239,2.7276,2.7321,2.7323,2.7353,2.7352,2.7256,0,0,0,2.6921,2.6869,2.695,2.6911,2.7029,2.7112,2.7046,2.7203,2.7221,2.7275,2.7321,2.7324,2.7354,2.7352,2.7261,2.7221,0,0,0,2.6876,2.6864,2.6881,2.6907,2.6979,2.7111,2.7147,2.7209,2.7243,2.7319,2.7324,2.7354,2.7353,2.7265,2.7228,2.721,0,0,0,2.681,2.6793,2.6878,2.6874,2.6977,2.7051,2.7146,2.7205,2.7259,2.7322,2.7354,2.7352,2.7266,2.7232,2.7213,2.7181,2.7162,0,0,2.6752,2.6784,2.6786,2.6868,2.691,2.7031,2.706,2.7171,2.7238,2.7309,2.7311,2.7259,2.7228,2.721,2.7082,2.7066,0,0,0,2.6746,2.6746,2.6772,2.6821,2.6907,2.6976,2.7091,2.7132,2.7196,2.7262,2.7251,2.7235,2.7227,2.7214,2.7201,2.7198,2.7344,2.7344,2.7344,2.6567,2.6655,2.6665,2.6773,2.6819,2.6938,2.6983,2.7059,2.7133,2.7129,2.715,2.7062,2.7045,2.7035,2.7031,2.7142,2.7142,2.7142,2.7141,2.6489,2.6503,2.6604,2.6649,2.6742,2.6781,2.6894,2.6945,2.6994,2.7053,2.7051,2.7105,2.7015,2.7016,2.7135,2.7136,2.7137,2.7138,2.7138,2.638,2.6403,2.6454,2.6535,2.6586,2.6697,2.6739,2.6822,2.6901,2.6898,2.6929,2.6931,2.6941,2.6907,2.6907,2.6907,2.6907,2.6906,2.6906,2.6247,2.6309,2.6334,2.6424,2.6467,2.6533,2.6652,2.6696,2.6765,2.6822,2.6823,2.6896,2.6991,2.7012,2.6902,2.6902,2.6903,2.6903,2.6904,2.6132,2.6171,2.6211,2.6253,2.6366,2.641,2.6517,2.6599,2.6647,2.6665,2.674,2.6798,2.6835,2.6847,2.6864,2.6722,2.6722,2.6722,2.6722,2.6039,2.6067,2.6127,2.6189,2.6259,2.636,2.64,2.6493,2.6594,2.6629,2.6663,2.6694,2.6702,2.6735,2.6749,2.6767,2.6603,2.6603,2.6603,2.5972,2.6011,2.603,2.6131,2.6225,2.6303,2.6344,2.641,2.6534,2.66,2.6658,2.6663,2.6715,2.6728,2.6791,2.6811,2.6845,0,0]}]]